• In Germany
  • List of Countries
  • For 7 days
  • Water Temperature
  • Satellite Maps
  • Weather Map
  • Weather Widgets
  • user-avatar
    Login

    Hourly Weather Sumgayit

    Today, 21 July, Friday

    Time Temperature Precipitation Wind Pressure Humidity
    00:00 +30°C° 0 mm 1 mps 734 mmHg 32%
    01:00 +30°C° 0 mm 1 mps 734 mmHg 33%
    02:00 +29°C° 0 mm 1 mps 734 mmHg 34%
    03:00 +28°C° 0 mm 1 mps 734 mmHg 39%
    04:00 +29°C° 0 mm 1 mps 734 mmHg 38%
    05:00 +27°C° 0 mm 0 mps 735 mmHg 37%
    06:00 +28°C° 0 mm 0 mps 735 mmHg 36%
    07:00 +31°C° 0 mm 1 mps 735 mmHg 32%
    08:00 +33°C° 0 mm 1 mps 736 mmHg 29%
    09:00 +35°C° 0 mm 2 mps 736 mmHg 26%
    10:00 +36°C° 0 mm 2 mps 736 mmHg 24%
    11:00 +37°C° 0 mm 3 mps 736 mmHg 22%
    12:00 +38°C° 0 mm 4 mps 736 mmHg 20%
    13:00 +38°C° 0 mm 4 mps 736 mmHg 19%
    14:00 +39°C° 0 mm 5 mps 736 mmHg 19%
    15:00 +40°C° 0 mm 5 mps 736 mmHg 19%
    16:00 +39°C° 0 mm 5 mps 736 mmHg 20%
    17:00 +37°C° 0 mm 4 mps 736 mmHg 21%
    18:00 +36°C° 0 mm 4 mps 736 mmHg 22%
    19:00 +35°C° 0 mm 4 mps 736 mmHg 26%
    20:00 +34°C° 0 mm 4 mps 736 mmHg 29%
    21:00 +33°C° 0 mm 4 mps 736 mmHg 33%
    22:00 +32°C° 0 mm 4 mps 736 mmHg 35%
    23:00 +32°C° 0 mm 4 mps 736 mmHg 36%

    Tomorrow, 22 July, Saturday

    Time Temperature Precipitation Wind Pressure Humidity
    00:00 +30°C° 0 mm 4 mps 736 mmHg 38%
    01:00 +30°C° 0 mm 4 mps 736 mmHg 38%
    02:00 +29°C° 0 mm 4 mps 736 mmHg 38%
    03:00 +29°C° 0 mm 4 mps 736 mmHg 38%
    04:00 +29°C° 0 mm 4 mps 737 mmHg 38%
    05:00 +30°C° 0 mm 4 mps 737 mmHg 37%
    06:00 +30°C° 0 mm 4 mps 737 mmHg 36%
    07:00 +32°C° 0 mm 4 mps 737 mmHg 34%
    08:00 +34°C° 0 mm 4 mps 737 mmHg 31%
    09:00 +35°C° 0 mm 4 mps 737 mmHg 28%
    10:00 +36°C° 0 mm 5 mps 737 mmHg 28%
    11:00 +36°C° 0 mm 5 mps 737 mmHg 28%
    12:00 +37°C° 0 mm 5 mps 737 mmHg 27%
    13:00 +37°C° 0 mm 5 mps 737 mmHg 27%
    14:00 +37°C° 0 mm 5 mps 737 mmHg 27%
    15:00 +37°C° 0 mm 5 mps 736 mmHg 27%
    16:00 +36°C° 0 mm 5 mps 736 mmHg 27%
    17:00 +36°C° 0 mm 4 mps 736 mmHg 28%
    18:00 +35°C° 0 mm 4 mps 736 mmHg 28%
    19:00 +34°C° 0 mm 3 mps 736 mmHg 30%
    20:00 +34°C° 0 mm 2 mps 736 mmHg 31%
    21:00 +32°C° 0 mm 1 mps 736 mmHg 33%
    22:00 +31°C° 0 mm 1 mps 736 mmHg 33%
    23:00 +31°C° 0 mm 1 mps 735 mmHg 33%

    Day after tomorrow, 23 July, Sunday

    Time Temperature Precipitation Wind Pressure Humidity
    00:00 +30°C° 0 mm 1 mps 735 mmHg 34%
    01:00 +30°C° 0 mm 1 mps 735 mmHg 34%
    02:00 +29°C° 0 mm 1 mps 735 mmHg 35%
    03:00 +29°C° 0 mm 1 mps 735 mmHg 36%
    04:00 +29°C° 0 mm 1 mps 735 mmHg 35%
    05:00 +30°C° 0 mm 1 mps 735 mmHg 34%
    06:00 +30°C° 0 mm 1 mps 735 mmHg 33%
    07:00 +31°C° 0 mm 1 mps 735 mmHg 31%
    08:00 +33°C° 0 mm 1 mps 735 mmHg 28%
    09:00 +35°C° 0 mm 2 mps 735 mmHg 26%
    10:00 +36°C° 0 mm 2 mps 735 mmHg 24%
    11:00 +37°C° 0 mm 3 mps 734 mmHg 21%
    12:00 +38°C° 0 mm 4 mps 734 mmHg 19%
    13:00 +40°C° 0 mm 4 mps 734 mmHg 19%
    14:00 +40°C° 0 mm 4 mps 734 mmHg 19%
    15:00 +40°C° 0 mm 5 mps 734 mmHg 20%
    16:00 +38°C° 0 mm 4 mps 733 mmHg 21%
    17:00 +38°C° 0 mm 4 mps 733 mmHg 22%
    18:00 +37°C° 0 mm 4 mps 733 mmHg 23%
    19:00 +35°C° 0 mm 4 mps 734 mmHg 28%
    20:00 +34°C° 0 mm 5 mps 734 mmHg 32%
    21:00 +32°C° 0 mm 5 mps 734 mmHg 37%
    22:00 +32°C° 0 mm 6 mps 734 mmHg 37%
    23:00 +32°C° 0 mm 7 mps 734 mmHg 38%

    24 July, Monday

    Time Temperature Precipitation Wind Pressure Humidity
    00:00 +30°C° 0 mm 7 mps 734 mmHg 38%
    01:00 +31°C° 0 mm 8 mps 734 mmHg 41%
    02:00 +31°C° 0 mm 8 mps 735 mmHg 45%
    03:00 +29°C° 0 mm 9 mps 735 mmHg 48%
    04:00 +29°C° 0 mm 9 mps 735 mmHg 48%
    05:00 +29°C° 0 mm 9 mps 735 mmHg 48%
    06:00 +29°C° 0 mm 10 mps 735 mmHg 48%
    07:00 +31°C° 0 mm 10 mps 735 mmHg 44%
    08:00 +32°C° 0 mm 9 mps 735 mmHg 40%
    09:00 +34°C° 0 mm 9 mps 736 mmHg 37%
    10:00 +34°C° 0 mm 9 mps 735 mmHg 35%
    11:00 +35°C° 0 mm 9 mps 735 mmHg 34%
    12:00 +37°C° 0 mm 10 mps 735 mmHg 32%
    13:00 +37°C° 0 mm 10 mps 735 mmHg 33%
    14:00 +37°C° 0 mm 10 mps 735 mmHg 34%
    15:00 +36°C° 0 mm 10 mps 735 mmHg 35%
    16:00 +36°C° 0 mm 10 mps 734 mmHg 37%
    17:00 +34°C° 0 mm 10 mps 734 mmHg 39%
    18:00 +33°C° 0 mm 10 mps 734 mmHg 41%
    19:00 +32°C° 0 mm 10 mps 734 mmHg 43%
    20:00 +32°C° 0 mm 10 mps 735 mmHg 44%
    21:00 +31°C° 0 mm 10 mps 735 mmHg 46%
    22:00 +31°C° 0 mm 9 mps 735 mmHg 45%
    23:00 +29°C° 0 mm 8 mps 734 mmHg 44%

    25 July, Tuesday

    Time Temperature Precipitation Wind Pressure Humidity
    00:00 +29°C° 0 mm 7 mps 734 mmHg 44%
    01:00 +29°C° 0 mm 7 mps 734 mmHg 44%
    02:00 +28°C° 0 mm 6 mps 734 mmHg 44%
    03:00 +28°C° 0 mm 6 mps 734 mmHg 45%
    04:00 +28°C° 0 mm 6 mps 734 mmHg 44%
    05:00 +28°C° 0 mm 6 mps 734 mmHg 44%
    06:00 +29°C° 0 mm 6 mps 734 mmHg 44%
    07:00 +30°C° 0 mm 6 mps 734 mmHg 41%
    08:00 +32°C° 0 mm 6 mps 734 mmHg 38%
    09:00 +33°C° 0 mm 6 mps 734 mmHg 35%
    10:00 +34°C° 0 mm 6 mps 734 mmHg 33%
    11:00 +35°C° 0 mm 6 mps 733 mmHg 32%
    12:00 +36°C° 0 mm 6 mps 733 mmHg 31%
    13:00 +36°C° 0 mm 6 mps 733 mmHg 31%
    14:00 +36°C° 0 mm 7 mps 732 mmHg 32%
    15:00 +36°C° 0 mm 7 mps 732 mmHg 32%
    16:00 +35°C° 0 mm 7 mps 732 mmHg 34%
    17:00 +35°C° 0 mm 7 mps 732 mmHg 35%
    18:00 +34°C° 0 mm 7 mps 732 mmHg 37%
    19:00 +33°C° 0 mm 6 mps 732 mmHg 39%
    20:00 +32°C° 0 mm 6 mps 732 mmHg 41%
    21:00 +32°C° 0 mm 5 mps 733 mmHg 42%
    22:00 +30°C° 0 mm 5 mps 733 mmHg 43%
    23:00 +30°C° 0 mm 5 mps 732 mmHg 44%

    26 July, Wednesday

    Time Temperature Precipitation Wind Pressure Humidity
    00:00 +29°C° 0 mm 4 mps 732 mmHg 45%
    01:00 +29°C° 0 mm 4 mps 732 mmHg 46%
    02:00 +29°C° 0 mm 4 mps 732 mmHg 46%
    03:00 +28°C° 0 mm 4 mps 732 mmHg 47%
    04:00 +28°C° 0 mm 4 mps 732 mmHg 45%
    05:00 +29°C° 0 mm 4 mps 733 mmHg 44%
    06:00 +29°C° 0 mm 4 mps 733 mmHg 43%
    07:00 +30°C° 0 mm 4 mps 733 mmHg 40%
    08:00 +33°C° 0 mm 4 mps 733 mmHg 37%
    09:00 +34°C° 0 mm 4 mps 733 mmHg 33%
    10:00 +35°C° 0 mm 4 mps 733 mmHg 32%
    11:00 +36°C° 0 mm 4 mps 733 mmHg 31%
    12:00 +37°C° 0 mm 4 mps 733 mmHg 30%
    13:00 +37°C° 0 mm 5 mps 733 mmHg 30%
    14:00 +38°C° 0 mm 6 mps 733 mmHg 30%
    15:00 +38°C° 0 mm 6 mps 733 mmHg 31%
    16:00 +38°C° 0 mm 7 mps 733 mmHg 31%
    17:00 +36°C° 0 mm 7 mps 733 mmHg 32%
    18:00 +35°C° 0 mm 7 mps 733 mmHg 33%
    19:00 +34°C° 0 mm 7 mps 733 mmHg 35%
    20:00 +34°C° 0 mm 7 mps 734 mmHg 37%
    21:00 +33°C° 0 mm 7 mps 734 mmHg 39%
    22:00 +32°C° 0 mm 6 mps 734 mmHg 39%
    23:00 +32°C° 0 mm 6 mps 734 mmHg 40%
    Show more